Баложи

Латвия     56˚52′34″N   24˚07′03″E
темп.,
°C
ветер,
м/с
пор.,
м/с
влажн.,
%
обл.,
%
осадки,
мм/ч
давл.,
гПа
погр.,
м
6 декабря, вс
вс623:00+6˚ююв81584100 0.0 1019808
02:00+6˚ююв71483100 0.0 1020801
05:00+6˚ююв81483100 0.0 1020785
08:00+5˚ююв81483100 0.0 1021827
11:00+6˚ююв81479100 0.0 1022895
14:00+4˚ююв81478100 0.0 1023773
17:00+3˚ююв81675100 0.0 1023753
20:00+3˚ююв9177198 0.0 1024723
7 декабря, пн
пн723:00+2˚ююв8176143 0.0 1024717
02:00+1˚ююв8165527 0.0 1025670
05:00ююв816530 0.0 1024647
08:00ююв816561 0.0 1025684
11:00+1˚ююв8155428 0.0 1025737
14:00+1˚юв8155146 0.0 1024778
17:00юв9165427 0.0 1024751
20:00ююв8165218 0.0 1025768
8 декабря, вт
вт823:00−1˚ююв8155261 0.0 1025762
02:00−1˚юв7145834 0.0 1026754
05:00−1˚юв713690 0.0 1026776
08:00−2˚юв713690 0.0 1026647
11:00−1˚юв713620 0.0 1026628
14:00юв713590 0.0 1027671
17:00−1˚юв714570 0.0 1027625
20:00−1˚юв714570 0.0 1027573
9 декабря, ср
ср923:00−2˚юв613590 0.0 1027608
02:00−2˚юв612620 0.0 1027667
05:00−3˚юв611660 0.0 1027756
08:00−3˚ююв610710 0.0 1027660
11:00−3˚ююв610690 0.0 1028559
14:00−2˚юв59670 0.0 1027553
17:00−3˚юв58704 0.0 1026413
20:00−2˚юв586647 0.0 1026475
10 декабря, чт
чт1023:00−3˚юв587163 0.0 1025476
02:00−4˚юв487556 0.0 1025453
05:00−4˚юв478847 0.0 1024438
08:00−3˚юв588972 0.2 1023462
11:00−3˚юв5984100 0.1 1023461
14:00−2˚юв4789100 0.1 1022420
17:00−2˚юв488999 0.1 1022347
20:00−1˚юв5990100 0.1 1021438